BRU167 UMMS-EPWA

Flight info

Callsign BRU167
Flight time 0h 58m
Altitude 36000
Route OSMUS2G OSMUS T174 RUDKA/N0449F360 M863 ETUBO M866 GERVI/N0385F200 P851 NEPOX
Aircraft B38M/M-SDE1FGHILORVWXY/HB1

Departure

Time 2026-05-06 11:12
Airport Minsk National Airport (UMMS)

Arrival

Time 2026-05-06 12:10
Airport Warsaw Chopin Airport (EPWA)
Time Latitude Longitude Altitude Speed Heading
2026-05-06 11:08 53.89414 28.04581 674 ft 11 kts 320°
2026-05-06 11:09 53.89480 28.04481 674 ft 14 kts 318°
2026-05-06 11:09 53.89564 28.04356 674 ft 18 kts 319°
2026-05-06 11:09 53.89664 28.04206 674 ft 13 kts 318°
2026-05-06 11:09 53.89712 28.04164 674 ft 6 kts 355°
2026-05-06 11:10 53.89740 28.04191 674 ft 4 kts 52°
2026-05-06 11:10 53.89751 28.04232 674 ft 3 kts 79°
2026-05-06 11:10 53.89747 28.04279 674 ft 6 kts 108°
2026-05-06 11:10 53.89725 28.04372 674 ft 10 kts 113°
2026-05-06 11:11 53.89689 28.04517 674 ft 15 kts 113°
2026-05-06 11:11 53.89616 28.04679 674 ft 21 kts 141°
2026-05-06 11:11 53.89352 28.05073 674 ft 81 kts 140°
2026-05-06 11:11 53.88778 28.05923 673 ft 135 kts 139°
2026-05-06 11:12 53.87956 28.07140 727 ft 171 kts 141°
2026-05-06 11:12 53.87045 28.08457 1176 ft 181 kts 143°
2026-05-06 11:12 53.86057 28.09844 1808 ft 191 kts 141°
2026-05-06 11:12 53.85064 28.11307 2688 ft 192 kts 139°
2026-05-06 11:13 53.84097 28.12813 3596 ft 191 kts 139°
2026-05-06 11:13 53.83056 28.14229 4288 ft 203 kts 149°
2026-05-06 11:13 53.81743 28.15401 4847 ft 225 kts 155°
2026-05-06 11:13 53.80286 28.16631 5453 ft 247 kts 154°
2026-05-06 11:14 53.78632 28.17733 6084 ft 266 kts 168°
2026-05-06 11:14 53.76776 28.17775 6849 ft 276 kts 193°
2026-05-06 11:14 53.75050 28.16546 7784 ft 278 kts 214°
2026-05-06 11:14 53.73632 28.14331 8680 ft 282 kts 232°
2026-05-06 11:15 53.72729 28.11422 9621 ft 286 kts 253°
2026-05-06 11:15 53.72596 28.08065 10369 ft 299 kts 275°
2026-05-06 11:15 53.73040 28.04564 10831 ft 320 kts 282°
2026-05-06 11:15 53.73651 28.00785 11182 ft 341 kts 282°
2026-05-06 11:16 53.74237 27.96876 11778 ft 352 kts 281°
2026-05-06 11:16 53.74788 27.92821 12594 ft 355 kts 280°
2026-05-06 11:16 53.75308 27.88741 13392 ft 359 kts 279°
2026-05-06 11:16 53.75820 27.84656 14254 ft 360 kts 279°
2026-05-06 11:17 53.76340 27.80500 15075 ft 363 kts 279°
2026-05-06 11:17 53.76855 27.76345 15858 ft 367 kts 279°
2026-05-06 11:17 53.77381 27.72122 16626 ft 370 kts 279°
2026-05-06 11:17 53.77915 27.67857 17373 ft 374 kts 279°
2026-05-06 11:18 53.78449 27.63592 18069 ft 378 kts 279°
2026-05-06 11:18 53.78993 27.59229 18751 ft 382 kts 279°
2026-05-06 11:18 53.79542 27.54817 19428 ft 386 kts 279°
2026-05-06 11:18 53.80089 27.50406 20084 ft 390 kts 279°
2026-05-06 11:19 53.80650 27.45871 20687 ft 394 kts 279°
2026-05-06 11:19 53.81210 27.41326 21246 ft 399 kts 279°
2026-05-06 11:19 53.81775 27.36706 21803 ft 404 kts 279°
2026-05-06 11:19 53.82344 27.32045 22356 ft 408 kts 279°
2026-05-06 11:20 53.82922 27.27294 22879 ft 412 kts 279°
2026-05-06 11:20 53.83499 27.22529 23394 ft 417 kts 279°
2026-05-06 11:20 53.84081 27.17716 23895 ft 421 kts 279°
2026-05-06 11:20 53.84663 27.12881 24384 ft 425 kts 279°
2026-05-06 11:21 53.85254 27.07954 24887 ft 428 kts 279°
2026-05-06 11:21 53.85845 27.03012 25386 ft 432 kts 279°
2026-05-06 11:21 53.86440 26.98024 25881 ft 435 kts 279°
2026-05-06 11:21 53.87035 26.93005 26372 ft 437 kts 279°
2026-05-06 11:22 53.87631 26.87967 26865 ft 440 kts 279°
2026-05-06 11:22 53.88166 26.82815 27360 ft 442 kts 276°
2026-05-06 11:22 53.88398 26.77643 27831 ft 443 kts 268°
2026-05-06 11:22 53.88111 26.72428 28315 ft 443 kts 258°
2026-05-06 11:23 53.87291 26.67391 28795 ft 444 kts 249°
2026-05-06 11:23 53.86029 26.62614 29310 ft 444 kts 242°
2026-05-06 11:23 53.84530 26.58054 30004 ft 440 kts 239°
2026-05-06 11:23 53.82986 26.53691 30603 ft 439 kts 239°
2026-05-06 11:24 53.81397 26.49285 31233 ft 437 kts 239°
2026-05-06 11:24 53.79834 26.44959 31876 ft 435 kts 239°
2026-05-06 11:24 53.78272 26.40624 32528 ft 433 kts 239°
2026-05-06 11:24 53.76702 26.36257 33189 ft 431 kts 239°
2026-05-06 11:25 53.75174 26.32000 33817 ft 429 kts 238°
2026-05-06 11:25 53.73637 26.27721 34445 ft 427 kts 238°
2026-05-06 11:25 53.72103 26.23450 35063 ft 425 kts 238°
2026-05-06 11:25 53.70574 26.19199 35671 ft 423 kts 238°
2026-05-06 11:26 53.69032 26.14920 35842 ft 431 kts 238°
2026-05-06 11:26 53.65940 26.06359 35835 ft 421 kts 239°
2026-05-06 11:27 53.62951 25.98105 35839 ft 407 kts 239°
2026-05-06 11:27 53.59965 25.89892 35837 ft 417 kts 239°
2026-05-06 11:28 53.56924 25.81554 35836 ft 422 kts 239°
2026-05-06 11:28 53.53858 25.73175 35838 ft 418 kts 238°
2026-05-06 11:29 53.50818 25.64893 35838 ft 416 kts 238°
2026-05-06 11:29 53.47791 25.56673 35837 ft 417 kts 238°
2026-05-06 11:30 53.44735 25.48401 35832 ft 418 kts 238°
2026-05-06 11:30 53.41664 25.40118 35832 ft 417 kts 238°
2026-05-06 11:31 53.38588 25.31848 35832 ft 417 kts 238°
2026-05-06 11:31 53.35533 25.23662 35832 ft 417 kts 238°
2026-05-06 11:32 53.32449 25.15427 35825 ft 417 kts 238°
2026-05-06 11:32 53.29371 25.07233 35816 ft 417 kts 238°
2026-05-06 11:33 53.26299 24.99080 35816 ft 417 kts 238°
2026-05-06 11:33 53.23199 24.90914 35812 ft 417 kts 237°
2026-05-06 11:34 53.20071 24.82740 35812 ft 417 kts 237°
2026-05-06 11:34 53.16972 24.74668 35811 ft 417 kts 237°
2026-05-06 11:35 53.13851 24.66562 35811 ft 416 kts 237°
2026-05-06 11:35 53.10733 24.58484 35809 ft 416 kts 237°
2026-05-06 11:36 53.07603 24.50401 35811 ft 416 kts 237°
2026-05-06 11:36 53.04486 24.42374 35810 ft 417 kts 237°
2026-05-06 11:37 53.01341 24.34305 35810 ft 417 kts 237°
2026-05-06 11:37 52.98203 24.26277 35808 ft 417 kts 236°
2026-05-06 11:38 52.95057 24.18253 35805 ft 417 kts 237°
2026-05-06 11:38 52.91935 24.10217 35807 ft 416 kts 237°
2026-05-06 11:39 52.88845 24.02057 35805 ft 417 kts 238°
2026-05-06 11:39 52.85783 23.93961 35805 ft 417 kts 238°
2026-05-06 11:40 52.82708 23.85954 35801 ft 417 kts 237°
2026-05-06 11:40 52.79560 23.77940 35793 ft 416 kts 237°
2026-05-06 11:41 52.76405 23.69960 35792 ft 414 kts 237°
2026-05-06 11:41 52.73266 23.62029 35792 ft 415 kts 237°
2026-05-06 11:42 52.70129 23.54116 35791 ft 416 kts 237°
2026-05-06 11:42 52.66942 23.46099 35790 ft 416 kts 237°
2026-05-06 11:43 52.63778 23.38161 35788 ft 416 kts 237°
2026-05-06 11:43 52.60617 23.30260 35791 ft 416 kts 236°
2026-05-06 11:44 52.57449 23.22362 35666 ft 413 kts 236°
2026-05-06 11:44 52.55868 23.18430 35210 ft 413 kts 236°
2026-05-06 11:44 52.54281 23.14489 34672 ft 415 kts 236°
2026-05-06 11:44 52.52700 23.10571 34208 ft 414 kts 236°
2026-05-06 11:45 52.51120 23.06662 33494 ft 416 kts 236°
2026-05-06 11:45 52.49520 23.02708 32769 ft 418 kts 236°
2026-05-06 11:45 52.47909 22.98732 32274 ft 413 kts 236°
2026-05-06 11:45 52.46328 22.94834 31717 ft 410 kts 236°
2026-05-06 11:46 52.44764 22.90986 31138 ft 406 kts 236°
2026-05-06 11:46 52.43205 22.87153 30553 ft 403 kts 236°
2026-05-06 11:46 52.41666 22.83376 29910 ft 403 kts 235°
2026-05-06 11:46 52.40113 22.79574 29244 ft 403 kts 235°
2026-05-06 11:47 52.38568 22.75799 28576 ft 403 kts 235°
2026-05-06 11:47 52.37011 22.71998 27901 ft 402 kts 235°
2026-05-06 11:47 52.35458 22.68214 27228 ft 402 kts 235°
2026-05-06 11:47 52.33913 22.64453 26558 ft 401 kts 235°
2026-05-06 11:48 52.32373 22.60708 25864 ft 399 kts 235°
2026-05-06 11:48 52.30838 22.56983 25145 ft 398 kts 235°
2026-05-06 11:48 52.29306 22.53271 24423 ft 396 kts 235°
2026-05-06 11:48 52.27771 22.49554 23703 ft 394 kts 236°
2026-05-06 11:49 52.26242 22.45858 23001 ft 392 kts 236°
2026-05-06 11:49 52.24725 22.42197 22308 ft 390 kts 236°
2026-05-06 11:49 52.23219 22.38568 21622 ft 387 kts 236°
2026-05-06 11:49 52.21717 22.34952 20939 ft 384 kts 234°
2026-05-06 11:50 52.20244 22.31410 20285 ft 382 kts 235°
2026-05-06 11:50 52.18749 22.27823 19619 ft 379 kts 235°
2026-05-06 11:50 52.17339 22.24253 18965 ft 377 kts 239°
2026-05-06 11:50 52.16221 22.20418 18307 ft 375 kts 249°
2026-05-06 11:51 52.15633 22.16315 17662 ft 375 kts 261°
2026-05-06 11:51 52.15520 22.12107 17025 ft 374 kts 268°
2026-05-06 11:51 52.15615 22.07879 16381 ft 372 kts 270°
2026-05-06 11:51 52.15758 22.03731 15748 ft 369 kts 270°
2026-05-06 11:52 52.15908 21.99598 15111 ft 367 kts 271°
2026-05-06 11:52 52.16186 21.95454 14469 ft 366 kts 275°
2026-05-06 11:52 52.16587 21.91383 13837 ft 364 kts 276°
2026-05-06 11:52 52.17028 21.87411 13330 ft 358 kts 276°
2026-05-06 11:53 52.17460 21.83449 12788 ft 353 kts 276°
2026-05-06 11:53 52.17860 21.79570 12256 ft 348 kts 275°
2026-05-06 11:53 52.18246 21.75684 11728 ft 343 kts 275°
2026-05-06 11:53 52.18611 21.71918 11214 ft 339 kts 274°
2026-05-06 11:54 52.18969 21.68140 10702 ft 335 kts 274°
2026-05-06 11:54 52.19319 21.64430 10240 ft 330 kts 274°
2026-05-06 11:54 52.19658 21.60782 10009 ft 318 kts 274°
2026-05-06 11:54 52.19979 21.57342 9895 ft 305 kts 273°
2026-05-06 11:55 52.20295 21.53965 9785 ft 292 kts 274°
2026-05-06 11:55 52.20606 21.50804 9777 ft 277 kts 274°
2026-05-06 11:55 52.20912 21.47747 9779 ft 267 kts 274°
2026-05-06 11:55 52.21193 21.44853 9776 ft 271 kts 274°
2026-05-06 11:56 52.21482 21.41818 9775 ft 272 kts 274°
2026-05-06 11:56 52.21771 21.38781 9773 ft 272 kts 274°
2026-05-06 11:56 52.22063 21.35719 9772 ft 272 kts 274°
2026-05-06 11:56 52.22359 21.32678 9770 ft 272 kts 274°
2026-05-06 11:57 52.22657 21.29647 9769 ft 272 kts 273°
2026-05-06 11:57 52.22950 21.26633 9770 ft 272 kts 273°
2026-05-06 11:57 52.23244 21.23563 9769 ft 272 kts 273°
2026-05-06 11:57 52.23539 21.20507 9768 ft 272 kts 274°
2026-05-06 11:58 52.23826 21.17477 9747 ft 271 kts 273°
2026-05-06 11:58 52.24110 21.14503 9626 ft 263 kts 273°
2026-05-06 11:58 52.24388 21.11569 9251 ft 266 kts 273°
2026-05-06 11:58 52.24672 21.08577 8876 ft 267 kts 273°
2026-05-06 11:59 52.24951 21.05601 8530 ft 267 kts 274°
2026-05-06 11:59 52.25232 21.02600 8183 ft 267 kts 274°
2026-05-06 11:59 52.25513 20.99623 7846 ft 267 kts 274°
2026-05-06 11:59 52.25817 20.96605 7535 ft 267 kts 277°
2026-05-06 12:00 52.26359 20.93752 7356 ft 265 kts 288°
2026-05-06 12:00 52.27143 20.91048 7050 ft 266 kts 292°
2026-05-06 12:00 52.27994 20.88341 6702 ft 267 kts 292°
2026-05-06 12:00 52.28808 20.85650 6433 ft 264 kts 291°
2026-05-06 12:01 52.29581 20.82965 6329 ft 255 kts 291°
2026-05-06 12:01 52.30307 20.80365 6160 ft 250 kts 290°
2026-05-06 12:01 52.31020 20.77779 5841 ft 251 kts 290°
2026-05-06 12:01 52.31744 20.75171 5542 ft 252 kts 291°
2026-05-06 12:02 52.32468 20.72577 5252 ft 252 kts 291°
2026-05-06 12:02 52.33197 20.69970 4999 ft 250 kts 291°
2026-05-06 12:02 52.33901 20.67433 4989 ft 239 kts 291°
2026-05-06 12:02 52.34537 20.64946 4990 ft 238 kts 283°
2026-05-06 12:03 52.34703 20.62321 4991 ft 233 kts 257°
2026-05-06 12:03 52.34089 20.59900 4970 ft 228 kts 232°
2026-05-06 12:03 52.32969 20.58173 4802 ft 222 kts 211°
2026-05-06 12:03 52.31592 20.57066 4571 ft 220 kts 202°
2026-05-06 12:04 52.30102 20.56424 4306 ft 228 kts 184°
2026-05-06 12:04 52.28548 20.56886 4095 ft 226 kts 155°
2026-05-06 12:04 52.27350 20.58423 4024 ft 218 kts 132°
2026-05-06 12:04 52.26619 20.60549 3964 ft 208 kts 116°
2026-05-06 12:05 52.26064 20.62667 3902 ft 199 kts 118°
2026-05-06 12:05 52.25507 20.64692 3855 ft 191 kts 117°
2026-05-06 12:05 52.24980 20.66635 3690 ft 185 kts 117°
2026-05-06 12:05 52.24460 20.68519 3525 ft 180 kts 118°
2026-05-06 12:06 52.23940 20.70351 3372 ft 177 kts 118°
2026-05-06 12:06 52.23438 20.72147 3222 ft 172 kts 118°
2026-05-06 12:06 52.22951 20.73905 3064 ft 164 kts 117°
2026-05-06 12:06 52.22520 20.75617 2914 ft 165 kts 118°
2026-05-06 12:07 52.22030 20.77277 2704 ft 163 kts 119°
2026-05-06 12:07 52.21556 20.78950 2464 ft 161 kts 118°
2026-05-06 12:07 52.21102 20.80577 2230 ft 153 kts 118°
2026-05-06 12:07 52.20665 20.82138 2038 ft 153 kts 118°
2026-05-06 12:08 52.20225 20.83707 1826 ft 152 kts 118°
2026-05-06 12:08 52.19783 20.85288 1616 ft 152 kts 118°
2026-05-06 12:08 52.19343 20.86861 1409 ft 152 kts 118°
2026-05-06 12:08 52.18900 20.88419 1206 ft 152 kts 119°
2026-05-06 12:09 52.18461 20.89979 1002 ft 153 kts 118°
2026-05-06 12:09 52.18023 20.91571 776 ft 155 kts 117°
2026-05-06 12:09 52.17575 20.93153 583 ft 154 kts 119°
2026-05-06 12:09 52.17122 20.94741 397 ft 154 kts 118°
2026-05-06 12:10 52.16713 20.96209 337 ft 119 kts 114°
2026-05-06 12:10 52.16460 20.97117 337 ft 59 kts 115°
2026-05-06 12:10 52.16385 20.97530 337 ft 23 kts 92°
2026-05-06 12:10 52.16390 20.97730 336 ft 10 kts 84°
2026-05-06 12:11 52.16413 20.97811 336 ft 6 kts 11°
2026-05-06 12:11 52.16450 20.97794 337 ft 5 kts 319°
2026-05-06 12:11 52.16455 20.97784 337 ft 0 kts 308°
2026-05-06 12:11 52.16455 20.97783 337 ft 0 kts 300°
2026-05-06 12:12 52.16454 20.97778 337 ft 0 kts 252°
2026-05-06 12:12 52.16444 20.97779 336 ft 2 kts 136°
2026-05-06 12:12 52.16432 20.97853 336 ft 9 kts 100°
2026-05-06 12:12 52.16401 20.97981 336 ft 15 kts 116°
2026-05-06 12:13 52.16380 20.98114 337 ft 8 kts 58°
2026-05-06 12:13 52.16405 20.98178 338 ft 5 kts 69°
2026-05-06 12:13 52.16402 20.98242 338 ft 7 kts 110°
2026-05-06 12:13 52.16353 20.98303 338 ft 11 kts 173°
2026-05-06 12:14 52.16331 20.98234 338 ft 9 kts 297°
2026-05-06 12:14 52.16363 20.98122 337 ft 12 kts 294°
2026-05-06 12:14 52.16408 20.97959 336 ft 19 kts 294°
2026-05-06 12:14 52.16472 20.97734 337 ft 24 kts 295°
2026-05-06 12:15 52.16543 20.97481 338 ft 24 kts 295°
2026-05-06 12:15 52.16642 20.97304 338 ft 19 kts 329°
2026-05-06 12:15 52.16756 20.97201 338 ft 17 kts 331°
2026-05-06 12:15 52.16837 20.97123 337 ft 4 kts 306°
2026-05-06 12:16 52.16828 20.97064 336 ft 6 kts 245°
2026-05-06 12:16 52.16827 20.97007 335 ft 1 kts 279°
2026-05-06 12:16 52.16828 20.96991 334 ft 0 kts 277°